Lamoni, IA

7:43 AM CDT on October 22, 2017 (GMT -0500)
Lamoni Municipal

Weather History for KLWD - April, 2014

Change the Weather History Date:

Thursday, April 3, 2014

  Actual Average Record
Temperature  
Mean Temperature 42 °F 48 °F  
Max Temperature 48 °F 58 °F 87 °F (2011)
Min Temperature 36 °F 37 °F 11 °F (1975)
Degree Days  
Heating Degree Days 23 17  
Month to date heating degree days 74 53  
Since 1 July heating degree days 6279 5542  
Cooling Degree Days 0 0  
Month to date cooling degree days 0 0  
Year to date cooling degree days 0 1  
Moisture  
Dew Point 43 °F    
Average Humidity 96    
Maximum Humidity 100    
Minimum Humidity 92    
Precipitation  
Precipitation 0.16 in 0.07 in 1.48 in (2017)
Month to date precipitation 0.17 0.22  
Sea Level Pressure  
Sea Level Pressure 29.67 in    
Wind  
Wind Speed 11 mph (NNE)    
Max Wind Speed 23 mph    
Max Gust Speed 30 mph    
Visibility 2 miles    
Events Fog , Rain    
T = Trace of Precipitation, MM = Missing Value Source: NWS Daily Summary

Daily Weather History Graph

Daily Weather History Graph

Search for Another Location

Airport or City:

Trip Planner

Search our weather history database for the weather conditions in past years. The results will help you decide how hot, cold, wet, or windy it might be!

Date:

Astronomy

Apr. 03, 2014 Rise Set
Actual Time 6:55 AM CDT 7:42 PM CDT
Civil Twilight 6:28 AM CDT 8:10 PM CDT
Nautical Twilight 5:55 AM CDT 8:42 PM CDT
Astronomical Twilight 5:21 AM CDT 9:16 PM CDT
Moon 9:24 AM CDT (4/3) No Moon Set
Length of Visible Light 13h 41m
Length of Day
12h 46m
Waxing Crescent, 17% of the Moon is Illuminated
Apr 3
Waxing Crescent
Apr 7
First Quarter
Apr 15
Full
Apr 22
Last Quarter
Apr 29
New

Hourly Weather History & Observations

Time (CDT) Temp. Windchill Dew Point Humidity Pressure Visibility Wind Dir Wind Speed Gust Speed Precip Events Conditions
12:53 AM 44.1 °F 38.1 °F 43.0 °F 96% 29.77 in 0.8 mi East 11.5 mph - N/A   Mist
1:28 AM 44.1 °F 35.4 °F 43.0 °F 96% 29.77 in 0.8 mi NNW 21.9 mph 26.5 mph 0.02 in Rain Light Rain
1:38 AM 44.1 °F 36.2 °F 43.0 °F 96% 29.71 in 1.0 mi ENE 18.4 mph 23.0 mph 0.02 in   Mist
1:53 AM 44.1 °F 40.1 °F 44.1 °F 100% 29.72 in 1.8 mi Variable 6.9 mph 23.0 mph 0.03 in Rain Light Rain
2:03 AM 44.1 °F 39.0 °F 43.0 °F 96% 29.70 in 2.5 mi NNE 9.2 mph - 0.00 in Rain Light Rain
2:27 AM 44.1 °F 37.7 °F 43.0 °F 96% 29.65 in 1.8 mi East 12.7 mph 24.2 mph 0.01 in Rain Light Rain
2:33 AM 44.1 °F 38.1 °F 43.0 °F 96% 29.66 in 3.0 mi East 11.5 mph - 0.01 in Rain Light Rain
2:53 AM 44.1 °F 42.5 °F 44.1 °F 100% 29.70 in 3.0 mi Variable 3.5 mph - 0.01 in   Overcast
3:01 AM 44.1 °F 38.6 °F 43.0 °F 96% 29.67 in 2.5 mi North 10.4 mph - N/A   Overcast
3:38 AM 44.1 °F 40.1 °F 43.0 °F 96% 29.67 in 1.5 mi NNE 6.9 mph - N/A   Overcast
3:53 AM 44.1 °F 42.5 °F 43.0 °F 96% 29.70 in 1.8 mi East 3.5 mph - N/A   Overcast
4:53 AM 43.0 °F 36.4 °F 42.1 °F 97% 29.75 in 1.2 mi North 12.7 mph - 0.01 in   Overcast
5:31 AM 43.0 °F 37.2 °F 42.1 °F 97% 29.72 in 2.0 mi NE 10.4 mph - 0.04 in Rain Light Rain
5:44 AM 43.0 °F 36.4 °F 41.0 °F 93% 29.69 in 1.8 mi ENE 12.7 mph - 0.07 in Rain Light Rain
5:53 AM 42.1 °F 35.7 °F 41.0 °F 96% 29.70 in 2.0 mi ENE 11.5 mph - 0.07 in Rain Light Rain
6:41 AM 42.1 °F 35.2 °F 41.0 °F 96% 29.66 in 1.0 mi East 12.7 mph - 0.02 in Rain Light Rain
6:53 AM 42.1 °F 35.7 °F 41.0 °F 96% 29.68 in 1.5 mi East 11.5 mph - 0.02 in Rain Light Rain
7:15 AM 42.1 °F 36.6 °F 41.0 °F 96% 29.66 in 0.8 mi East 9.2 mph - 0.01 in Rain Light Rain
7:44 AM 42.1 °F 36.6 °F 41.0 °F 96% 29.66 in 1.2 mi East 9.2 mph - 0.01 in   Overcast
7:53 AM 42.1 °F 36.6 °F 42.1 °F 100% 29.69 in 0.8 mi ENE 9.2 mph - 0.01 in   Mist
8:53 AM 42.1 °F 36.1 °F 41.0 °F 96% 29.71 in 0.2 mi North 10.4 mph - N/A Fog Fog
9:53 AM 41.0 °F 34.3 °F 39.9 °F 96% 29.72 in 0.2 mi North 11.5 mph - N/A Fog Fog
10:53 AM 41.0 °F 34.3 °F 39.9 °F 96% 29.72 in 0.2 mi NE 11.5 mph - N/A Fog Fog
11:53 AM 42.1 °F 34.9 °F 41.0 °F 96% 29.69 in 0.2 mi NE 13.8 mph - N/A Fog Fog
12:53 PM 43.0 °F 37.2 °F 42.1 °F 97% 29.66 in 0.2 mi NE 10.4 mph - N/A Fog Fog
1:53 PM 44.1 °F 37.4 °F 43.0 °F 96% 29.66 in 0.2 mi NE 13.8 mph - N/A Fog Fog
2:53 PM 45.0 °F 39.7 °F 44.1 °F 97% 29.61 in 0.2 mi ENE 10.4 mph - N/A Fog Fog
3:53 PM 46.0 °F 41.0 °F 45.0 °F 96% 29.61 in 0.8 mi ENE 10.4 mph - N/A   Mist
4:53 PM 46.9 °F - 46.0 °F 97% 29.59 in 0.2 mi ENE 11.5 mph - N/A Fog Fog
5:53 PM 46.9 °F - 46.9 °F 100% 29.60 in 0.2 mi ENE 9.2 mph - N/A Fog Fog
6:53 PM 48.0 °F - 46.9 °F 96% 29.60 in 0.2 mi NNW 4.6 mph - N/A Fog Fog
7:53 PM 46.0 °F 40.6 °F 45.0 °F 96% 29.60 in 1.0 mi NW 11.5 mph - N/A   Mist
8:40 PM 45.0 °F 39.7 °F 44.1 °F 97% 29.61 in 2.0 mi NNW 10.4 mph - N/A   Overcast
8:53 PM 44.1 °F 37.7 °F 43.0 °F 96% 29.64 in 2.0 mi WNW 12.7 mph - N/A   Overcast
9:18 PM 44.1 °F 37.4 °F 43.0 °F 96% 29.64 in 1.8 mi West 13.8 mph - N/A   Overcast
9:29 PM 44.1 °F 38.1 °F 43.0 °F 96% 29.65 in 2.0 mi West 11.5 mph - 0.00 in Rain Light Rain
9:44 PM 44.1 °F 39.5 °F 43.0 °F 96% 29.62 in 3.0 mi NW 8.1 mph - 0.00 in Rain Light Rain
10:53 PM 43.0 °F 38.2 °F 42.1 °F 97% 29.61 in 3.0 mi West 8.1 mph - N/A   Overcast
11:02 PM 43.0 °F 36.8 °F 42.1 °F 97% 29.59 in 2.5 mi West 11.5 mph - N/A   Overcast
11:37 PM 39.0 °F 29.6 °F 37.9 °F 96% 29.60 in 3.0 mi West 18.4 mph - 0.01 in   Overcast
11:53 PM 37.9 °F 28.5 °F 37.0 °F 97% 29.62 in 4.0 mi West 17.3 mph - 0.01 in   Overcast